Location: Roanoke
(37.2710°N, 79.9420°W)
Time: 11:04:16
(UTC-05:00)

Courier 1B Rocket - Pass Details

Date: 22 November 2019
Orbit: 920 x 1202 km, 28.2° (Epoch: 08 December)

Event Time Altitude Azimuth Distance (km) Brightness Sun altitude
Rises 17:20:30 0° 263° (W) 3,844 10.0 -3.6°
Reaches altitude 10° 17:23:24 10° 254° (WSW) 2,932 9.4 -4.1°
Maximum altitude 17:29:51 35° 192° (SSW) 1,743 6.7 -5.3°
Drops below altitude 10° 17:36:38 10° 129° (SE) 3,087 7.3 -6.6°
Sets 17:39:47 0° 121° (ESE) 4,071 7.9 -7.1°
